Tracking 28052 objects as of 21-Sep-2023
HD Live streaming from Space Station
objects crossing your sky now

STARLINK-1990

Track STARLINK-1990 now!
10-day predictions
STARLINK-1990 is classified as:


NORAD ID: 47586
Int'l Code: 2021-009AQ
Perigee: 553.3 km
Apogee: 555.5 km
Inclination: 53.1 °
Period: 95.6 minutes
Semi major axis: 6925 km
RCS: Unknown
Launch date: February 4, 2021
Source: United States (US)
Launch site: AIR FORCE EASTERN TEST RANGE (AFETR)
Your satellite tracking list
Your tracking list is empty




NASA's NSSDC Master Catalog

Two Line Element Set (TLE):
1 47586U 21009AQ  23263.88399000  .00008767  00000-0  60712-3 0  9992
2 47586  53.0546 125.4927 0001551  88.8842 271.2325 15.06377089145351
Source of the keplerian elements: AFSPC